[[{"header":{"parameterUnit":"m.s-1","parameterCategory":1,"la1":30.2991,"la2":30.254,"lo1":-89.0895,"lo2":-89.0444,"dy":0.0017,"dx":0.0017,"nx":28,"ny":28,"refTime":"2024-10-03T03:00:00:Z","depth":0,"parameterNumber":2,"parameterNumberName":"U-component_of_WINDS"},"data":[0,0,0,0,0,0,0,0,0,0,0,0,0,0,0,0,0,0,0,0,0,0,0,0,0,0,0,0,0,0,0,0,0,0,0,0,0,0,0,0,0,0,0,0,0,0,0,0,0,0,0,0,0,0,0,0,0,0,-3.4036,-3.4037,0,-3.4132,-3.4133,-3.4134,-3.4061,-3.4058,-3.4054,-3.4051,-3.4151,-3.4157,-3.4162,0,0,0,0,0,0,0,0,0,0,0,0,0,-3.3789,-3.3794,-3.4035,-3.4037,-3.4038,-3.4132,-3.4133,-3.4135,-3.4061,-3.4057,-3.4054,-3.405,-3.4149,-3.4156,-3.4163,0,0,0,0,0,0,0,0,0,0,0,0,0,-3.3892,-3.3795,-3.4035,-3.4013,-3.4012,-3.4132,-3.4133,-3.4135,-3.4062,-3.4057,-3.4053,-3.4048,-3.4147,-3.4155,-3.4164,-3.4311,0,0,-3.4189,-3.4193,0,0,0,0,0,0,0,0,-3.3886,-3.3901,-3.4015,-3.4014,-3.4013,-3.4079,-3.4083,-3.4194,-3.4063,-3.4043,-3.4051,-3.4046,-3.4131,-3.4141,-3.4169,-3.4316,-3.432,-3.419,-3.4195,-3.4199,-3.4201,0,0,0,0,0,0,0,-3.3879,-3.3896,-3.4074,-3.4017,-3.4016,-3.3998,-3.4007,-3.4103,-3.4113,-3.4044,-3.4039,-3.4052,-3.413,-3.4161,-3.4171,-3.4322,-3.419,-3.4197,-3.4203,-3.4206,-3.4596,-3.4601,0,0,0,0,0,0,-3.3874,-3.3891,-3.4071,-3.4077,-3.3937,-3.4006,-3.4017,-3.4063,-3.4111,-3.4114,-3.4056,-3.4048,-3.4149,-3.4161,-3.4174,-3.4352,-3.4199,-3.4207,-3.4212,-3.4591,-3.4598,-3.4603,0,0,0,0,0,0,-3.3869,-3.3891,-3.4067,-3.3982,-3.4003,-3.4016,-3.4068,-3.4068,-3.4099,-3.412,-3.4121,-3.4086,-3.4146,-3.4162,-3.4278,-3.4355,-3.4211,-3.4218,-3.4585,-3.4593,-3.46,-3.4708,0,0,0,0,0,0,-3.3862,-3.3889,-3.3945,-3.3984,-3.4008,-3.4169,-3.4073,-3.4073,-3.4114,-3.4104,-3.4149,-3.4152,-3.4143,-3.4266,-3.4287,-3.4364,-3.4225,-3.4578,-3.4589,-3.4598,-3.4698,-3.4719,-3.4737,0,0,0,0,0,-3.3854,-3.3972,-3.3949,-3.3971,-3.4079,-3.4174,-3.4187,-3.4175,-3.412,-3.4177,-3.419,-3.415,-3.4342,-3.4278,-3.4301,-3.4382,-3.4573,-3.4586,-3.4597,-3.4689,-3.4715,-3.4736,0,0,0,0,0,0,-3.3941,-3.3976,-3.3951,-3.4085,-3.4127,-3.4161,-3.4232,-3.4202,-3.4261,-3.425,-3.4232,-3.4243,-3.4365,-3.4384,-3.4313,-3.4528,-3.4449,-3.4466,-3.4511,-3.4536,-3.4555,-3.4549,-3.4232,0,0,0,0,0,-3.3976,-3.405,-3.4077,-3.4192,-3.4215,-3.422,-3.4261,-3.4248,-3.4291,-3.4308,-3.433,-3.4374,-3.4444,-3.449,-3.4556,-3.47,-3.4709,-3.4766,-3.4786,-3.4802,-3.4817,-3.4897,-3.4923,-3.4643,-3.4642,-3.4642,0,0,-3.4049,-3.4078,-3.4125,-3.4211,-3.4242,-3.432,-3.4236,-3.4321,-3.4379,-3.4321,-3.4432,-3.445,-3.4497,-3.4628,-3.4687,-3.4648,-3.4897,-3.4817,-3.4829,-3.4837,-3.4912,-3.4938,-3.4962,-3.4651,-3.4649,-3.4648,0,0,-3.4223,-3.4251,-3.4351,-3.4384,-3.4432,-3.4435,-3.4459,-3.4498,-3.4508,-3.4619,-3.4578,-3.4646,-3.4767,-3.4803,-3.4837,-3.5024,-3.4991,-3.5046,-3.5149,-3.5226,-3.5248,-3.5268,-3.5337,-3.5362,-3.5061,-3.5061,-3.5062,0,-3.4308,-3.4423,-3.4407,-3.4496,-3.4536,-3.4486,-3.4589,-3.4621,-3.4688,-3.4717,-3.4672,-3.4824,-3.4852,-3.4992,-3.5038,-3.5066,-3.5094,-3.5042,-3.5246,-3.5266,-3.5284,-3.535,-3.5375,-3.5068,-3.5067,-3.5067,-3.5066,0,-3.4526,-3.4607,-3.4682,-3.4749,-3.4797,-3.4892,-3.489,-3.4941,-3.4924,-3.4931,-3.5046,-3.5078,-3.515,-3.5182,-3.5165,-3.532,-3.5294,-3.5248,-3.5169,-3.5318,-3.5379,-3.5404,-3.5078,-3.5075,-3.5073,-3.5072,0,0,-3.4759,-3.4815,-3.4844,-3.4874,-3.4923,-3.4986,-3.5079,-3.5149,-3.5194,-3.5241,-3.532,-3.5424,-3.5382,-3.542,-3.5408,-3.5476,-3.5625,-3.5421,-3.5422,-3.546,-3.5799,-3.5836,-3.5865,-3.5602,-3.5606,-3.561,-3.5796,0,-3.4937,-3.51,-3.5088,-3.5242,-3.5317,-3.5271,-3.5353,-3.5392,-3.5402,-3.5468,-3.5478,-3.5553,-3.549,-3.5514,-3.5579,-3.5593,-3.5693,-3.5579,-3.5677,-3.568,-3.5669,-3.5897,-3.5935,-3.6109,-3.582,-3.5824,-3.5827,0,-3.5166,-3.5223,-3.5384,-3.5423,-3.5454,-3.5528,-3.5592,-3.5655,-3.5699,-3.5701,-3.5745,-3.5721,-3.5816,-3.5733,-3.5865,-3.5788,-3.5827,-3.584,-3.5846,-3.5857,-3.5764,-3.5916,-3.6164,-3.6191,-3.5864,-3.5861,-3.5858,0,-3.5323,-3.5439,-3.5551,-3.5578,-3.5626,-3.5679,-3.5701,-3.574,-3.5784,-3.584,-3.5868,-3.5935,-3.5972,-3.6024,-3.6019,-3.5959,-3.6154,-3.607,-3.616,-3.6161,-3.6205,-3.6203,-3.6466,-3.6226,-3.6226,-3.6225,-3.6225,0,-3.5524,-3.5625,-3.5622,-3.5692,-3.5804,-3.5789,-3.5901,-3.5917,-3.5953,-3.6025,-3.5989,-3.6057,-3.6046,-3.6115,-3.6111,-3.6222,-3.6238,-3.6244,-3.6242,-3.6249,-3.6249,-3.6276,-3.6265,-3.6232,-3.6231,-3.6229,-3.6228,0,-3.5719,-3.5721,-3.584,-3.5876,-3.5887,-3.5969,-3.5999,-3.6065,-3.6072,-3.6164,-3.6184,-3.6195,-3.6274,-3.6274,-3.6364,-3.6362,-3.6499,-3.6482,-3.6484,-3.6482,-3.6573,-3.6566,-3.6865,-3.6904,-3.6637,-3.6639,-3.6642,0,-3.5848,-3.5925,-3.5969,-3.6015,-3.6041,-3.6115,-3.616,-3.6148,-3.6196,-3.6252,-3.6312,-3.6388,-3.6448,-3.6577,-3.6593,-3.6663,-3.6649,-3.6749,-3.6659,-3.6664,-3.6653,-3.665,-3.6659,-3.6767,-3.677,-3.6773,-3.6775,0,-3.6079,-3.6076,-3.6141,-3.6208,-3.6262,-3.6314,-3.6361,-3.6401,-3.6394,-3.645,-3.6531,-3.6577,-3.667,-3.6747,-3.6814,-3.6837,-3.6806,-3.6802,-3.6828,-3.6836,-3.6835,-3.684,-3.6535,-3.6796,-3.6794,-3.6793,-3.6791,-3.679,-3.6247,-3.6314,-3.6356,-3.643,-3.6465,-3.651,-3.6574,-3.6589,-3.6656,-3.6731,-3.6719,-3.681,-3.6853,-3.694,-3.6969,-3.704,-3.7005,-3.7041,-3.7051,-3.706,-3.7072,-3.6822,-3.7052,-3.7051,-3.7051,-3.705,-3.705,0,-3.6478,-3.6502,-3.6571,-3.6639,-3.6698,-3.6662,-3.6713,-3.6765,-3.6845,-3.6887,-3.6948,-3.7041,-3.7116,-3.7137,-3.7209,-3.7262,-3.725,-3.7282,-3.7279,-3.7286,-3.7097,-3.707,-3.7291,-3.7291,-3.7291,-3.7291,-3.7291,-3.7291,-3.6605,-3.6717,-3.672,-3.6849,-3.6872,-3.6961,-3.6994,-3.7036,-3.707,-3.7176,-3.7238,-3.7251,-3.7286,-3.736,-3.7427,-3.7431,-3.7461,-3.7499,-3.7498,-3.7323,-3.7299,-3.7276,-3.725,-3.7505,-3.7505,-3.7681,-3.7682,-3.7683]},{"header":{"parameterUnit":"m.s-1","parameterCategory":1,"la1":30.2991,"la2":30.254,"lo1":-89.0895,"lo2":-89.0444,"dy":0.0017,"dx":0.0017,"nx":28,"ny":28,"refTime":"2024-10-03T03:00:00:Z","depth":0,"parameterNumber":3,"parameterNumberName":"V-component_of_WINDS"},"data":[0,0,0,0,0,0,0,0,0,0,0,0,0,0,0,0,0,0,0,0,0,0,0,0,0,0,0,0,0,0,0,0,0,0,0,0,0,0,0,0,0,0,0,0,0,0,0,0,0,0,0,0,0,0,0,0,0,0,-3.2283,-3.2283,0,-3.2296,-3.2296,-3.2296,-3.2247,-3.2246,-3.2245,-3.2243,-3.2254,-3.2256,-3.2258,0,0,0,0,0,0,0,0,0,0,0,0,0,-3.2214,-3.2215,-3.2283,-3.2283,-3.2284,-3.2296,-3.2296,-3.2296,-3.2248,-3.2246,-3.2244,-3.2242,-3.2254,-3.2256,-3.2258,0,0,0,0,0,0,0,0,0,0,0,0,0,-3.2237,-3.2216,-3.2283,-3.2261,-3.2259,-3.2296,-3.2296,-3.2297,-3.2248,-3.2246,-3.2244,-3.2242,-3.2253,-3.2256,-3.2258,-3.2317,0,0,-3.2266,-3.2267,0,0,0,0,0,0,0,0,-3.2236,-3.224,-3.2264,-3.2262,-3.226,-3.2268,-3.2276,-3.2303,-3.2249,-3.2252,-3.2243,-3.2241,-3.2261,-3.2262,-3.2269,-3.2317,-3.2318,-3.2266,-3.2267,-3.2268,-3.2269,0,0,0,0,0,0,0,-3.2234,-3.2239,-3.2288,-3.2264,-3.2262,-3.2249,-3.225,-3.2281,-3.2268,-3.2252,-3.2248,-3.225,-3.2259,-3.2267,-3.2269,-3.2318,-3.2266,-3.2268,-3.2269,-3.227,-3.2414,-3.2416,0,0,0,0,0,0,-3.2236,-3.2238,-3.2288,-3.2289,-3.2242,-3.2252,-3.2253,-3.2268,-3.2268,-3.2266,-3.2252,-3.2248,-3.2264,-3.2266,-3.227,-3.2338,-3.2268,-3.2271,-3.2272,-3.2412,-3.2415,-3.2417,0,0,0,0,0,0,-3.2235,-3.2241,-3.2287,-3.2262,-3.2267,-3.2256,-3.2272,-3.2269,-3.2277,-3.2268,-3.2266,-3.2263,-3.2262,-3.2266,-3.2305,-3.2337,-3.2272,-3.2274,-3.2409,-3.2413,-3.2416,-3.2475,0,0,0,0,0,0,-3.2233,-3.2241,-3.2263,-3.2263,-3.2269,-3.2324,-3.2274,-3.2271,-3.2282,-3.2276,-3.2278,-3.2276,-3.2261,-3.2302,-3.2308,-3.234,-3.2276,-3.2406,-3.2411,-3.2415,-3.247,-3.248,-3.2489,0,0,0,0,0,-3.223,-3.2279,-3.2265,-3.2271,-3.2297,-3.2326,-3.2329,-3.2311,-3.2285,-3.2307,-3.2301,-3.2276,-3.2333,-3.2306,-3.2313,-3.2346,-3.2404,-3.2409,-3.2414,-3.2466,-3.2478,-3.2488,0,0,0,0,0,0,-3.2283,-3.2279,-3.2263,-3.2313,-3.232,-3.2317,-3.2345,-3.2325,-3.2339,-3.2334,-3.2311,-3.2312,-3.2355,-3.2354,-3.2324,-3.2402,-3.2364,-3.2371,-3.2401,-3.2412,-3.2421,-3.242,-3.2278,0,0,0,0,0,-3.23,-3.2325,-3.232,-3.2364,-3.2369,-3.2357,-3.2368,-3.2355,-3.2361,-3.2363,-3.236,-3.2367,-3.2386,-3.2399,-3.2417,-3.247,-3.2469,-3.2496,-3.2505,-3.2513,-3.2518,-3.2546,-3.2557,-3.2434,-3.2434,-3.2434,0,0,-3.2336,-3.2337,-3.2354,-3.2375,-3.2379,-3.2404,-3.2359,-3.2388,-3.2406,-3.2367,-3.2404,-3.2403,-3.2408,-3.2455,-3.2475,-3.2455,-3.2552,-3.2519,-3.2526,-3.2527,-3.2552,-3.2564,-3.2574,-3.2438,-3.2437,-3.2437,0,0,-3.2415,-3.2418,-3.2456,-3.2461,-3.2467,-3.2459,-3.2468,-3.2469,-3.2466,-3.2503,-3.2475,-3.2495,-3.2529,-3.2534,-3.2541,-3.2622,-3.2599,-3.2628,-3.2676,-3.2703,-3.2713,-3.2721,-3.2749,-3.2759,-3.2634,-3.2634,-3.2634,0,-3.2458,-3.2495,-3.2477,-3.2508,-3.2517,-3.2485,-3.2522,-3.2527,-3.2539,-3.2546,-3.2524,-3.2566,-3.2568,-3.2615,-3.2634,-3.2641,-3.265,-3.2627,-3.2713,-3.2721,-3.2729,-3.2755,-3.2765,-3.2638,-3.2637,-3.2637,-3.2637,0,-3.2548,-3.2575,-3.2604,-3.2617,-3.263,-3.2663,-3.265,-3.2665,-3.265,-3.2644,-3.2681,-3.2682,-3.2699,-3.2709,-3.2695,-3.2754,-3.2741,-3.2717,-3.2678,-3.2744,-3.2768,-3.2778,-3.2643,-3.2642,-3.2641,-3.264,0,0,-3.2659,-3.2662,-3.2673,-3.2678,-3.2683,-3.2703,-3.2735,-3.2752,-3.2765,-3.2774,-3.2799,-3.2829,-3.2807,-3.2815,-3.28,-3.2824,-3.2887,-3.2797,-3.2796,-3.2812,-3.2951,-3.2969,-3.2981,-3.2872,-3.2874,-3.2875,-3.295,0,-3.2735,-3.279,-3.2775,-3.2829,-3.2853,-3.2822,-3.285,-3.2856,-3.2851,-3.2869,-3.2863,-3.2885,-3.2853,-3.2858,-3.288,-3.2875,-3.2914,-3.2869,-3.2894,-3.2895,-3.2893,-3.2993,-3.3012,-3.3083,-3.296,-3.2961,-3.2962,0,-3.2831,-3.2845,-3.2902,-3.2903,-3.2912,-3.2937,-3.2951,-3.297,-3.2976,-3.297,-3.298,-3.2961,-3.2991,-3.2953,-3.2994,-3.2964,-3.2973,-3.2972,-3.2974,-3.2975,-3.2932,-3.2996,-3.3105,-3.3115,-3.2977,-3.2976,-3.2975,0,-3.2905,-3.2938,-3.2976,-3.2981,-3.2984,-3.3002,-3.3004,-3.3007,-3.3019,-3.3031,-3.3038,-3.3053,-3.3061,-3.3074,-3.3059,-3.3033,-3.3102,-3.3063,-3.3098,-3.3098,-3.3112,-3.3111,-3.3224,-3.3121,-3.3121,-3.3121,-3.312,0,-3.299,-3.3026,-3.3009,-3.3032,-3.3071,-3.3053,-3.3092,-3.309,-3.3094,-3.3116,-3.3091,-3.3112,-3.3092,-3.3111,-3.31,-3.3135,-3.3139,-3.3135,-3.3131,-3.3136,-3.3137,-3.3141,-3.3136,-3.3123,-3.3123,-3.3122,-3.3122,0,-3.3079,-3.3069,-3.3108,-3.3108,-3.3108,-3.3137,-3.3136,-3.3157,-3.3151,-3.3179,-3.3184,-3.3174,-3.3195,-3.3182,-3.3203,-3.3196,-3.3241,-3.3231,-3.3239,-3.3236,-3.3271,-3.3268,-3.3389,-3.3404,-3.3293,-3.3294,-3.3295,0,-3.3133,-3.316,-3.3163,-3.3176,-3.318,-3.3201,-3.3213,-3.3196,-3.3209,-3.3217,-3.3237,-3.3256,-3.327,-3.3305,-3.3299,-3.3315,-3.3305,-3.3346,-3.3307,-3.3311,-3.3304,-3.3302,-3.3304,-3.3354,-3.3355,-3.3356,-3.3357,0,-3.3231,-3.3225,-3.3243,-3.3259,-3.3273,-3.3285,-3.3295,-3.3307,-3.329,-3.3305,-3.3327,-3.3338,-3.336,-3.3379,-3.3393,-3.3393,-3.3372,-3.337,-3.3379,-3.3383,-3.3387,-3.3384,-3.326,-3.3367,-3.3366,-3.3365,-3.3365,-3.3364,-3.3304,-3.3326,-3.3331,-3.3352,-3.3357,-3.3367,-3.3386,-3.3383,-3.3401,-3.3417,-3.3407,-3.3432,-3.3436,-3.3452,-3.3456,-3.3475,-3.3458,-3.3471,-3.3474,-3.3477,-3.3481,-3.3385,-3.3478,-3.3477,-3.3477,-3.3477,-3.3477,0,-3.3399,-3.3401,-3.342,-3.3435,-3.3451,-3.3431,-3.344,-3.3454,-3.3477,-3.3484,-3.3498,-3.3523,-3.3541,-3.3537,-3.3553,-3.3569,-3.356,-3.3574,-3.3572,-3.3572,-3.3496,-3.3487,-3.3581,-3.3581,-3.3581,-3.3581,-3.3581,-3.3581,-3.3451,-3.3487,-3.3482,-3.352,-3.3522,-3.3547,-3.3554,-3.3562,-3.3567,-3.3596,-3.3611,-3.3608,-3.361,-3.3627,-3.3642,-3.364,-3.3647,-3.3664,-3.3659,-3.3588,-3.3578,-3.3568,-3.3558,-3.3666,-3.3666,-3.3733,-3.3734,-3.3734]}]]